FENGYUN 1C DEB, 31016

Orbit data source: Space-Track

FENGYUN 1C DEB, 31016 is space debris in SSO originally from a launch on Mon, 10 May 1999 UTC launched from the Taiyaun Space Center, China (TSC). Fengyun 1C debris stems from the Chinese weather satellite Fengyun-1C, which was intentionally destroyed by a Chinese anti-satellite missile in 2007. This event dramatically increased the amount of space debris, with thousands of trackable fragments posing hazards to satellites and human spaceflight. The Fengyun 1C debris cloud has become a focal point in discussions about space sustainability and the need for international regulations to prevent the creation of new debris.

Loading next visibility...
Identifier
31016, 1999-025BDJ
Orbit
SSO
Country
Flag of CNCN / PRC
Related business
Manufacturer
Unknown
Mission
Spacecraft
Bus & Motor
Unknown
Mass
Unknown
Launch date (UTC)
1999-05-10 (27 years ago)
Launch vehicle
Unknown
Launch site
Taiyaun Space Center, China (TSC)
Object type
Payload
Rocket body
Debris
Shape & HBR
Unknown shape, 0.1 m
Radar Cross Section
Small (<0.1 m²)

Expand to show TLE details & history
Last TLE update: 11 hours ago

TLE from 11 hours ago
0 FENGYUN 1C DEB
1 31016U 99025BDJ 26169.52669851  .00000527  00000-0  20228-3 0  9993
2 31016  98.4254 184.7302 0114098  79.2337  71.0242 14.30769330  1557
Epoch: 2026-06-18T12:38Z
TLE epoch observation values (Epoch: 2026-06-18T12:38:26.751Z)
Latitude
28.2094°
Longitude
-87.11729°
Altitude
766.892 km
Speed
7.487 km/s
True Right ascension
00h 37m 03s
True Declination
28° 03' 60"
Sunlit
Object was in daylight at epoch
Visualization orbit readout
Latitude
Unknown
Longitude
Unknown
Altitude
Unknown
Speed
Unknown
Apparent Right ascension
Unknown
Apparent Declination
Unknown
Sunlit
N/A
Visualization observer readout
Local Sidereal Time
10:04:19
Azimuth
Unknown
Elevation
Unknown
Doppler factor
Unknown
Orbital elements
Apogee altitude
868.035 km
Perigee altitude
704.546 km
Semi-major axis
7,164.428 km
Eccentricity
0.01141
Inclination
98.4254°
RAAN
184.7302°
Arg. of periapsis
79.2337°
True anomaly
72.26628°
Mean anomaly
71.0242°
Eccentric anomaly
71.64467°
Mean motion
3.57908 °/min
Orbital period
100.58 mins
BSTAR
0.00020228
Loading maneuver chart data...
Computing Atmospheric mass density...

Documentation

Showing up to 5 results
|